Voltar ao catálogo

COSMOS 1375 DEB

AtivoLEO
NORAD 17106·DEBRIS·🇷🇺 Russia

Lançado Jun 6, 1982 de Plesetsk Cosmodrome

Loading…

Próximas Passagens (próximas 24 horas)

TLE

AtualizadoSource: Space-Track

Época: Sep 14, 2026, 05:45 UTC

1 17106U 82055AH  26257.23959785  .00000174  00000-0  22148-3 0  9997
2 17106  65.8276 109.8162 0012810 126.0244 349.4315 13.86365978232641

Acompanhe COSMOS 1375 DEB em tempo real com AllMySat

Download on the App Store